Погода в Голодском

Россия / Калужская область     54°17′33″N   36°11′09″E
темп.,
°C
ветер,
м/с
пор.,
м/с
влажн.,
%
обл.,
%
осадки,
мм/ч
давл.,
гПа
погр.,
м
14 апреля, ср
ср1400:00+12юв3863100 0.0 1020187
03:00+10ююв397914 0.0 1020175
06:00+8ююв389544 0.0 1019179
09:00+13ю46786 0.0 1019512
12:00+16ю466093 0.0 10191342
15:00+16ю4557100 0.3 10181189
18:00+15юз116749 0.6 101718
21:00+11ссв2281100 0.8 101715
15 апреля, чт
чт1500:00+10св258379 0.0 101678
03:00+10юв1168100 0.0 101610
06:00+9всв2265100 0.0 101517
09:00+12всв3464100 0.0 1015161
12:00+16ю2549100 0.0 1016867
15:00+16ююв1252100 0.1 1015917
18:00+14ссв2460100 0.1 1014115
21:00+11св4107097 0.2 1015178
16 апреля, пт
пт1600:00+10всв5127790 1.1 1015441
03:00+9всв5149042 1.7 1016521
06:00+8всв61292100 0.1 1017453
09:00+10всв6108282 0.2 1017478
12:00+14в586785 0.0 1018818
15:00+15в686496 0.5 10181145
18:00+13в61281100 3.6 1018712
21:00+10ссв339293 13.6 1020133
17 апреля, сб
сб1700:00+10всв4996100 8.4 1021412
03:00+9всв5118995 9.8 1022472
06:00+8всв5119089 0.2 1023516
09:00+9всв6128099 0.4 1024642
12:00+11всв7116499 0.1 1024911
15:00+13всв7105694 0.2 10241328
18:00+12всв711535 0.0 10241110
21:00+8всв614545 0.0 1026549
18 апреля, вс
вс1800:00+6всв614615 0.0 1026535
03:00+5всв5146719 0.0 1027456
06:00+4всв5136989 0.0 1027439
09:00+7в5116454 0.0 1027623
12:00+12вюв695079 0.0 10281341
15:00+13вюв684668 0.0 10271769
18:00+10ююв246491 0.0 1028353
21:00+7сз017690 0.0 102810